,,PA_Meas_PMT16A,,PR_Meas_QMR101_102,,RH_Meas_QMH101,,SR_Meas_QMS101,,TA_Meas_QMH101,,GenWind,,GenWind,
time,status,PA,status,PR,status,RH,status,SR,status,TA,status,DirAvg,status,SpdAvg,
2014-06-05, 00:00:04,VALID,915.875,VALID,0,VALID,96.0322,VALID,0,VALID,20.5219,VALID,346,VALID,0.630078,
2014-06-05, 00:01:04,VALID,915.83,VALID,0,VALID,96.0474,VALID,0,VALID,20.5219,VALID,346,VALID,0.582031,
2014-06-05, 00:02:04,VALID,915.838,VALID,0,VALID,96.055,VALID,0,VALID,20.5219,VALID,346,VALID,0.669531,
2014-06-05, 00:03:04,VALID,915.827,VALID,0,VALID,96.0703,VALID,0,VALID,20.5219,VALID,344,VALID,0.754687,
2014-06-05, 00:04:04,VALID,915.79,VALID,0,VALID,96.1008,VALID,0,VALID,20.5219,VALID,345,VALID,0.674609,
2014-06-05, 00:05:04,VALID,915.769,VALID,0,VALID,96.1236,VALID,0.107441,VALID,20.5024,VALID,345,VALID,0.796094,
2014-06-05, 00:06:04,VALID,915.74,VALID,0,VALID,96.1084,VALID,0,VALID,20.5219,VALID,347,VALID,0.928125,
2014-06-05, 00:07:04,VALID,915.76,VALID,0,VALID,96.116,VALID,0,VALID,20.5024,VALID,344,VALID,1.07773,
2014-06-05, 00:08:04,VALID,915.735,VALID,0,VALID,96.1313,VALID,0,VALID,20.5024,VALID,347,VALID,1.20469,
2014-06-05, 00:09:04,VALID,915.716,VALID,0,VALID,96.1389,VALID,0,VALID,20.5219,VALID,340,VALID,0.949219,
2014-06-05, 00:10:04,VALID,915.759,VALID,0,VALID,96.1465,VALID,0.107441,VALID,20.5024,VALID,344,VALID,0.585547,
2014-06-05, 00:11:04,VALID,915.747,VALID,0,VALID,96.1694,VALID,0,VALID,20.5219,VALID,342,VALID,0.646875,
2014-06-05, 00:12:04,VALID,915.768,VALID,0,VALID,96.1618,VALID,0,VALID,20.5219,VALID,342,VALID,0.437891,
2014-06-05, 00:13:04,VALID,915.796,VALID,0,VALID,96.177,VALID,0,VALID,20.5204,VALID,344,VALID,0.620313,
2014-06-05, 00:14:04,VALID,915.782,VALID,0,VALID,96.1923,VALID,0,VALID,20.5219,VALID,354,VALID,1.05977,
2014-06-05, 00:15:04,VALID,915.83,VALID,0,VALID,96.238,VALID,0.107441,VALID,20.5219,VALID,344,VALID,0.883203,
2014-06-05, 00:16:04,VALID,915.835,VALID,0,VALID,96.2304,VALID,0,VALID,20.5219,VALID,359,VALID,0.627734,
2014-06-05, 00:17:04,VALID,915.858,VALID,0,VALID,96.2304,VALID,0,VALID,20.543,VALID,359,VALID,1.05391,
2014-06-05, 00:18:04,VALID,915.858,VALID,0,VALID,96.2761,VALID,0.107441,VALID,20.5024,VALID,16,VALID,1.35703,
2014-06-05, 00:19:04,VALID,915.857,VALID,0,VALID,96.2761,VALID,0,VALID,20.4829,VALID,13,VALID,0.822266,
2014-06-05, 00:20:04,VALID,915.872,VALID,0,VALID,96.2685,VALID,0,VALID,20.4634,VALID,14,VALID,1.29648,
2014-06-05, 00:21:04,VALID,915.899,VALID,0,VALID,96.299,VALID,0,VALID,20.4634,VALID,14,VALID,0.862891,
2014-06-05, 00:22:04,VALID,915.871,VALID,0,VALID,96.299,VALID,0,VALID,20.4634,VALID,5,VALID,0.908984,
2014-06-05, 00:23:04,VALID,915.869,VALID,0,VALID,96.3219,VALID,0.107441,VALID,20.4634,VALID,3,VALID,1.16211,
2014-06-05, 00:24:04,VALID,915.861,VALID,0,VALID,96.3295,VALID,0,VALID,20.4634,VALID,4,VALID,1.21523,
2014-06-05, 00:25:04,VALID,915.852,VALID,0,VALID,96.3371,VALID,0,VALID,20.4845,VALID,334,VALID,1.09883,
2014-06-05, 00:26:04,VALID,915.829,VALID,0,VALID,96.3447,VALID,0,VALID,20.4634,VALID,339,VALID,1.21797,
2014-06-05, 00:27:04,VALID,915.844,VALID,0,VALID,96.3676,VALID,0,VALID,20.4618,VALID,348,VALID,1.18477,
2014-06-05, 00:28:04,VALID,915.833,VALID,0,VALID,96.3524,VALID,0.107441,VALID,20.4829,VALID,359,VALID,2.05,
2014-06-05, 00:29:04,VALID,915.812,VALID,0,VALID,96.3371,VALID,0,VALID,20.5024,VALID,3,VALID,1.66094,
2014-06-05, 00:30:04,VALID,915.841,VALID,0,VALID,96.3524,VALID,0,VALID,20.5024,VALID,335,VALID,1.57383,
2014-06-05, 00:31:04,VALID,915.873,VALID,0,VALID,96.3524,VALID,0,VALID,20.5024,VALID,354,VALID,1.12852,
2014-06-05, 00:32:04,VALID,915.896,VALID,0,VALID,96.3371,VALID,0,VALID,20.4829,VALID,4,VALID,1.23047,
2014-06-05, 00:33:04,VALID,915.92,VALID,0,VALID,96.3524,VALID,0,VALID,20.4829,VALID,338,VALID,0.971484,
2014-06-05, 00:34:04,VALID,915.898,VALID,0,VALID,96.36,VALID,0,VALID,20.4829,VALID,353,VALID,1.41562,
2014-06-05, 00:35:04,VALID,915.922,VALID,0,VALID,96.3752,VALID,0,VALID,20.4634,VALID,348,VALID,1.39922,
2014-06-05, 00:36:04,VALID,915.948,VALID,0,VALID,96.3676,VALID,0,VALID,20.5024,VALID,342,VALID,0.803125,
2014-06-05, 00:37:04,VALID,915.93,VALID,0,VALID,96.3676,VALID,0,VALID,20.4829,VALID,328,VALID,0.797266,
2014-06-05, 00:38:04,VALID,915.917,VALID,0,VALID,96.3752,VALID,0,VALID,20.5024,VALID,351,VALID,0.942187,
2014-06-05, 00:39:04,VALID,915.903,VALID,0,VALID,96.3371,VALID,0,VALID,20.5024,VALID,343,VALID,1.43242,
2014-06-05, 00:40:04,VALID,915.893,VALID,0,VALID,96.36,VALID,0,VALID,20.5235,VALID,3,VALID,1.13672,
2014-06-05, 00:41:04,VALID,915.874,VALID,0,VALID,96.3447,VALID,0,VALID,20.5235,VALID,4,VALID,1.00859,
2014-06-05, 00:42:04,VALID,915.858,VALID,0,VALID,96.36,VALID,0,VALID,20.5219,VALID,331,VALID,1.49844,
2014-06-05, 00:43:04,VALID,915.819,VALID,0,VALID,96.3447,VALID,0,VALID,20.5024,VALID,343,VALID,1.43789,
2014-06-05, 00:44:04,VALID,915.842,VALID,0,VALID,96.3524,VALID,0,VALID,20.5219,VALID,1,VALID,1.20469,
2014-06-05, 00:45:04,VALID,915.806,VALID,0,VALID,96.36,VALID,0,VALID,20.5219,VALID,355,VALID,1.80117,
2014-06-05, 00:46:04,VALID,915.799,VALID,0,VALID,96.3371,VALID,0,VALID,20.5009,VALID,7,VALID,1.39063,
2014-06-05, 00:47:04,VALID,915.78,VALID,0,VALID,96.3371,VALID,0,VALID,20.5219,VALID,8,VALID,0.782031,
2014-06-05, 00:48:04,VALID,915.77,VALID,0,VALID,96.3524,VALID,0.107441,VALID,20.5414,VALID,352,VALID,0.184375,
2014-06-05, 00:49:04,VALID,915.745,VALID,0,VALID,96.3524,VALID,0,VALID,20.5219,VALID,307,VALID,0.912891,
2014-06-05, 00:50:04,VALID,915.7,VALID,0,VALID,96.36,VALID,0,VALID,20.5414,VALID,312,VALID,0.792188,
2014-06-05, 00:51:04,VALID,915.699,VALID,0,VALID,96.3524,VALID,0,VALID,20.5414,VALID,325,VALID,1.19492,
2014-06-05, 00:52:04,VALID,915.699,VALID,0,VALID,96.3447,VALID,0,VALID,20.5414,VALID,353,VALID,0.941797,
2014-06-05, 00:53:04,VALID,915.675,VALID,0,VALID,96.3524,VALID,0,VALID,20.5219,VALID,335,VALID,0.789063,
2014-06-05, 00:54:04,VALID,915.654,VALID,0,VALID,96.3524,VALID,0,VALID,20.5024,VALID,335,VALID,0.383984,
2014-06-05, 00:55:04,VALID,915.608,VALID,0,VALID,96.3752,VALID,0,VALID,20.5219,VALID,339,VALID,0.257422,
2014-06-05, 00:56:04,VALID,915.624,VALID,0,VALID,96.3829,VALID,0,VALID,20.5219,VALID,339,VALID,0.504297,
2014-06-05, 00:57:04,VALID,915.614,VALID,0,VALID,96.3752,VALID,0,VALID,20.5219,VALID,334,VALID,0.234766,
2014-06-05, 00:58:04,VALID,915.59,VALID,0,VALID,96.3905,VALID,0.107441,VALID,20.5219,VALID,355,VALID,0.768359,
2014-06-05, 00:59:04,VALID,915.579,VALID,0,VALID,96.4057,VALID,0,VALID,20.5414,VALID,12,VALID,0.613672,
2014-06-05, 01:00:04,VALID,915.563,VALID,0,VALID,96.4133,VALID,0,VALID,20.5625,VALID,12,VALID,1.29297,
2014-06-05, 01:01:04,VALID,915.527,VALID,0,VALID,96.4362,VALID,0,VALID,20.5204,VALID,336,VALID,1.01563,
2014-06-05, 01:02:04,VALID,915.563,VALID,0,VALID,96.4362,VALID,0,VALID,20.5219,VALID,353,VALID,0.7,
2014-06-05, 01:03:04,VALID,915.565,VALID,0,VALID,96.4286,VALID,0,VALID,20.5219,VALID,355,VALID,0.847656,
2014-06-05, 01:04:04,VALID,915.549,VALID,0,VALID,96.4438,VALID,0,VALID,20.5219,VALID,355,VALID,0.648828,
2014-06-05, 01:05:04,VALID,915.578,VALID,0,VALID,96.4438,VALID,0,VALID,20.5414,VALID,355,VALID,0.517187,
2014-06-05, 01:06:04,VALID,915.553,VALID,0,VALID,96.4515,VALID,0,VALID,20.5414,VALID,355,VALID,0.315234,
2014-06-05, 01:07:04,VALID,915.537,VALID,0,VALID,96.4667,VALID,0,VALID,20.5609,VALID,355,VALID,0.487891,
2014-06-05, 01:08:04,VALID,915.52,VALID,0,VALID,96.4743,VALID,0,VALID,20.5609,VALID,353,VALID,0.216797,
2014-06-05, 01:09:04,VALID,915.502,VALID,0,VALID,96.4743,VALID,0,VALID,20.5609,VALID,353,VALID,0,
2014-06-05, 01:10:04,VALID,915.476,VALID,0,VALID,96.4972,VALID,0,VALID,20.5609,VALID,351,VALID,0.984375,
2014-06-05, 01:11:04,VALID,915.494,VALID,0,VALID,96.4896,VALID,0,VALID,20.5414,VALID,315,VALID,0.638281,
2014-06-05, 01:12:04,VALID,915.467,VALID,0,VALID,96.4896,VALID,0,VALID,20.5219,VALID,313,VALID,0.947266,
2014-06-05, 01:13:04,VALID,915.466,VALID,0,VALID,96.4667,VALID,0,VALID,20.5024,VALID,319,VALID,0.349609,
2014-06-05, 01:14:04,VALID,915.484,VALID,0,VALID,96.4743,VALID,0,VALID,20.5414,VALID,3,VALID,1.22422,
2014-06-05, 01:15:04,VALID,915.43,VALID,0,VALID,96.4819,VALID,0,VALID,20.5219,VALID,11,VALID,0.990234,
2014-06-05, 01:16:04,VALID,915.425,VALID,0,VALID,96.4591,VALID,0,VALID,20.5219,VALID,24,VALID,0.972266,
2014-06-05, 01:17:04,VALID,915.445,VALID,0,VALID,96.4591,VALID,0,VALID,20.5219,VALID,12,VALID,0.492578,
2014-06-05, 01:18:04,VALID,915.454,VALID,0,VALID,96.4515,VALID,0,VALID,20.5219,VALID,11,VALID,0.798437,
2014-06-05, 01:19:04,VALID,915.434,VALID,0,VALID,96.4362,VALID,0,VALID,20.5414,VALID,11,VALID,0.450391,
2014-06-05, 01:20:04,VALID,915.443,VALID,0,VALID,96.4362,VALID,0,VALID,20.5414,VALID,11,VALID,0.630078,
2014-06-05, 01:21:04,VALID,915.435,VALID,0,VALID,96.4133,VALID,0.107441,VALID,20.5414,VALID,12,VALID,0.548828,
2014-06-05, 01:22:04,VALID,915.421,VALID,0,VALID,96.3905,VALID,0,VALID,20.4813,VALID,354,VALID,0.555859,
2014-06-05, 01:23:04,VALID,915.419,VALID,0,VALID,96.3676,VALID,0,VALID,20.4813,VALID,354,VALID,0.296875,
2014-06-05, 01:24:04,VALID,915.424,VALID,0,VALID,96.3371,VALID,0,VALID,20.5024,VALID,354,VALID,0.427344,
2014-06-05, 01:25:04,VALID,915.43,VALID,0,VALID,96.3524,VALID,0,VALID,20.5219,VALID,4,VALID,0.658594,
2014-06-05, 01:26:04,VALID,915.431,VALID,0,VALID,96.3371,VALID,0,VALID,20.5024,VALID,3,VALID,0.0664063,
2014-06-05, 01:27:04,VALID,915.427,VALID,0,VALID,96.3295,VALID,0,VALID,20.5219,VALID,3,VALID,0.599219,
2014-06-05, 01:28:04,VALID,915.41,VALID,0,VALID,96.3066,VALID,0,VALID,20.5024,VALID,6,VALID,1.86055,
2014-06-05, 01:29:04,VALID,915.435,VALID,0,VALID,96.299,VALID,0.107441,VALID,20.4829,VALID,11,VALID,1.03281,
2014-06-05, 01:30:04,VALID,915.397,VALID,0,VALID,96.2914,VALID,0,VALID,20.4618,VALID,10,VALID,0.890625,
2014-06-05, 01:31:04,VALID,915.368,VALID,0,VALID,96.2761,VALID,0,VALID,20.5024,VALID,10,VALID,0.699219,
2014-06-05, 01:32:04,VALID,915.381,VALID,0,VALID,96.2685,VALID,0,VALID,20.5024,VALID,14,VALID,0.750391,
2014-06-05, 01:33:04,VALID,915.388,VALID,0,VALID,96.2837,VALID,0,VALID,20.5414,VALID,15,VALID,0.748438,
2014-06-05, 01:34:04,VALID,915.371,VALID,0,VALID,96.2685,VALID,0,VALID,20.5024,VALID,15,VALID,0.652344,
2014-06-05, 01:35:04,VALID,915.353,VALID,0,VALID,96.2685,VALID,0,VALID,20.5024,VALID,15,VALID,0.605469,
2014-06-05, 01:36:04,VALID,915.361,VALID,0,VALID,96.2609,VALID,0,VALID,20.5024,VALID,15,VALID,0.665625,
2014-06-05, 01:37:04,VALID,915.335,VALID,0,VALID,96.2609,VALID,0,VALID,20.5024,VALID,15,VALID,0.411719,
2014-06-05, 01:38:04,VALID,915.363,VALID,0,VALID,96.2685,VALID,0,VALID,20.5024,VALID,15,VALID,0.345313,
2014-06-05, 01:39:04,VALID,915.359,VALID,0,VALID,96.2914,VALID,0,VALID,20.4829,VALID,15,VALID,0.486719,
2014-06-05, 01:40:04,VALID,915.34,VALID,0,VALID,96.2761,VALID,0,VALID,20.5024,VALID,15,VALID,0.246875,
2014-06-05, 01:41:04,VALID,915.313,VALID,0,VALID,96.299,VALID,0,VALID,20.5024,VALID,15,VALID,0.134766,
2014-06-05, 01:42:04,VALID,915.297,VALID,0,VALID,96.299,VALID,0,VALID,20.5219,VALID,15,VALID,0,
2014-06-05, 01:43:04,VALID,915.261,VALID,0,VALID,96.3066,VALID,0,VALID,20.5414,VALID,15,VALID,0,
2014-06-05, 01:44:04,VALID,915.242,VALID,0,VALID,96.3219,VALID,0,VALID,20.5414,VALID,15,VALID,0,
2014-06-05, 01:45:04,VALID,915.229,VALID,0,VALID,96.3219,VALID,0.107441,VALID,20.5414,VALID,15,VALID,0,
2014-06-05, 01:46:04,VALID,915.245,VALID,0,VALID,96.3219,VALID,0,VALID,20.5414,VALID,15,VALID,0,
2014-06-05, 01:47:04,VALID,915.228,VALID,0,VALID,96.3066,VALID,0,VALID,20.5414,VALID,15,VALID,0.105469,
2014-06-05, 01:48:04,VALID,915.247,VALID,0,VALID,96.299,VALID,0,VALID,20.5219,VALID,15,VALID,0.383984,
2014-06-05, 01:49:04,VALID,915.208,VALID,0,VALID,96.2914,VALID,0,VALID,20.5219,VALID,15,VALID,0.492578,
2014-06-05, 01:50:04,VALID,915.236,VALID,0,VALID,96.2761,VALID,0,VALID,20.5219,VALID,15,VALID,0.639844,
2014-06-05, 01:51:04,VALID,915.224,VALID,0,VALID,96.2761,VALID,0,VALID,20.5219,VALID,15,VALID,0.500781,
2014-06-05, 01:52:04,VALID,915.209,VALID,0,VALID,96.238,VALID,0,VALID,20.5414,VALID,15,VALID,0.6,
2014-06-05, 01:53:04,VALID,915.211,VALID,0,VALID,96.2456,VALID,0,VALID,20.5219,VALID,15,VALID,0.559375,
2014-06-05, 01:54:04,VALID,915.213,VALID,0,VALID,96.2304,VALID,0,VALID,20.5414,VALID,15,VALID,0.348047,
2014-06-05, 01:55:04,VALID,915.177,VALID,0,VALID,96.2228,VALID,0,VALID,20.5414,VALID,15,VALID,0.240625,
2014-06-05, 01:56:04,VALID,915.171,VALID,0,VALID,96.1999,VALID,0,VALID,20.5414,VALID,15,VALID,0.162109,
2014-06-05, 01:57:04,VALID,915.192,VALID,0,VALID,96.1923,VALID,0,VALID,20.5219,VALID,15,VALID,0,
2014-06-05, 01:58:04,VALID,915.165,VALID,0,VALID,96.1846,VALID,0,VALID,20.543,VALID,15,VALID,0.316016,
2014-06-05, 01:59:04,VALID,915.175,VALID,0,VALID,96.1846,VALID,0,VALID,20.5219,VALID,15,VALID,0,
2014-06-05, 02:00:04,VALID,915.153,VALID,0,VALID,96.1846,VALID,0,VALID,20.5445,VALID,15,VALID,0.00429688,
2014-06-05, 02:01:04,VALID,915.105,VALID,0,VALID,96.1694,VALID,0,VALID,20.543,VALID,15,VALID,0,
2014-06-05, 02:02:04,VALID,915.119,VALID,0,VALID,96.1618,VALID,0,VALID,20.5641,VALID,15,VALID,0,
2014-06-05, 02:03:04,VALID,915.073,VALID,0,VALID,96.1465,VALID,0,VALID,20.543,VALID,15,VALID,0.197266,
2014-06-05, 02:04:04,VALID,915.079,VALID,0,VALID,96.1694,VALID,0,VALID,20.543,VALID,15,VALID,0.207422,
2014-06-05, 02:05:04,VALID,915.064,VALID,0,VALID,96.1313,VALID,0,VALID,20.543,VALID,15,VALID,0,
2014-06-05, 02:06:04,VALID,915.07,VALID,0,VALID,96.1465,VALID,0,VALID,20.5836,VALID,15,VALID,0,
2014-06-05, 02:07:04,VALID,915.061,VALID,0,VALID,96.1465,VALID,0,VALID,20.5625,VALID,15,VALID,0,
2014-06-05, 02:08:04,VALID,915.052,VALID,0,VALID,96.1236,VALID,0,VALID,20.543,VALID,15,VALID,0,
2014-06-05, 02:09:04,VALID,915.033,VALID,0,VALID,96.116,VALID,0,VALID,20.5235,VALID,15,VALID,0,
2014-06-05, 02:10:04,VALID,915.031,VALID,0,VALID,96.0932,VALID,0,VALID,20.5445,VALID,15,VALID,0,
2014-06-05, 02:11:04,VALID,915.025,VALID,0,VALID,96.0855,VALID,0,VALID,20.5445,VALID,15,VALID,0,
2014-06-05, 02:12:04,VALID,915.028,VALID,0,VALID,96.1008,VALID,0,VALID,20.5235,VALID,15,VALID,0,
2014-06-05, 02:13:04,VALID,915.005,VALID,0,VALID,96.1084,VALID,0,VALID,20.543,VALID,15,VALID,0,
2014-06-05, 02:14:05,VALID,915.008,VALID,0,VALID,96.116,VALID,0,VALID,20.543,VALID,15,VALID,0,
2014-06-05, 02:15:05,VALID,915.009,VALID,0,VALID,96.1236,VALID,0,VALID,20.5414,VALID,15,VALID,0.255078,
2014-06-05, 02:16:05,VALID,914.96,VALID,0,VALID,96.116,VALID,0,VALID,20.5414,VALID,15,VALID,0.253125,
2014-06-05, 02:17:05,VALID,914.992,VALID,0,VALID,96.1084,VALID,0,VALID,20.5414,VALID,15,VALID,0.316406,
2014-06-05, 02:18:05,VALID,914.966,VALID,0,VALID,96.1008,VALID,0,VALID,20.5625,VALID,15,VALID,0.382031,
2014-06-05, 02:19:05,VALID,914.964,VALID,0,VALID,96.1084,VALID,0,VALID,20.5414,VALID,15,VALID,0.459766,
2014-06-05, 02:20:05,VALID,914.94,VALID,0,VALID,96.0932,VALID,0,VALID,20.5219,VALID,15,VALID,0.486328,
2014-06-05, 02:21:05,VALID,914.921,VALID,0,VALID,96.1236,VALID,0,VALID,20.5024,VALID,15,VALID,0.355859,
2014-06-05, 02:22:05,VALID,914.943,VALID,0,VALID,96.1313,VALID,0,VALID,20.5024,VALID,15,VALID,0.322266,
2014-06-05, 02:23:05,VALID,914.917,VALID,0,VALID,96.1236,VALID,0,VALID,20.5219,VALID,15,VALID,0.324609,
2014-06-05, 02:24:05,VALID,914.916,VALID,0,VALID,96.1236,VALID,0,VALID,20.4829,VALID,15,VALID,0,
2014-06-05, 02:25:05,VALID,914.952,VALID,0,VALID,96.1236,VALID,0,VALID,20.4829,VALID,15,VALID,0,
2014-06-05, 02:26:05,VALID,914.908,VALID,0,VALID,96.1389,VALID,0,VALID,20.5024,VALID,15,VALID,0,
2014-06-05, 02:27:05,VALID,914.901,VALID,0,VALID,96.1389,VALID,0,VALID,20.5024,VALID,15,VALID,0,
2014-06-05, 02:28:05,VALID,914.905,VALID,0,VALID,96.1694,VALID,0,VALID,20.5219,VALID,15,VALID,0,
2014-06-05, 02:29:05,VALID,914.918,VALID,0,VALID,96.1923,VALID,0,VALID,20.5219,VALID,15,VALID,0.235156,
2014-06-05, 02:30:05,VALID,914.868,VALID,0,VALID,96.2151,VALID,0,VALID,20.5414,VALID,15,VALID,0.514844,
2014-06-05, 02:31:05,VALID,914.902,VALID,0,VALID,96.1999,VALID,0,VALID,20.5024,VALID,15,VALID,0.296484,
2014-06-05, 02:32:05,VALID,914.887,VALID,0,VALID,96.1694,VALID,0,VALID,20.4829,VALID,15,VALID,0.0832031,
2014-06-05, 02:33:05,VALID,914.882,VALID,0,VALID,96.1694,VALID,0,VALID,20.5235,VALID,15,VALID,0.187891,
2014-06-05, 02:34:05,VALID,914.889,VALID,0,VALID,96.1999,VALID,0,VALID,20.543,VALID,15,VALID,0.185156,
2014-06-05, 02:35:05,VALID,914.883,VALID,0,VALID,96.2228,VALID,0,VALID,20.5414,VALID,15,VALID,0,
2014-06-05, 02:36:05,VALID,914.869,VALID,0,VALID,96.238,VALID,0,VALID,20.5609,VALID,15,VALID,0.385547,
2014-06-05, 02:37:05,VALID,914.872,VALID,0,VALID,96.2533,VALID,0,VALID,20.5414,VALID,15,VALID,0,
2014-06-05, 02:38:05,VALID,914.875,VALID,0,VALID,96.2228,VALID,0,VALID,20.5219,VALID,15,VALID,0,
2014-06-05, 02:39:05,VALID,914.875,VALID,0,VALID,96.2151,VALID,0,VALID,20.5219,VALID,15,VALID,0,
2014-06-05, 02:40:05,VALID,914.884,VALID,0,VALID,96.2228,VALID,0,VALID,20.5219,VALID,15,VALID,0,
2014-06-05, 02:41:05,VALID,914.825,VALID,0,VALID,96.238,VALID,0,VALID,20.5219,VALID,15,VALID,0,
2014-06-05, 02:42:05,VALID,914.833,VALID,0,VALID,96.2304,VALID,0,VALID,20.543,VALID,15,VALID,0,
2014-06-05, 02:43:05,VALID,914.844,VALID,0,VALID,96.238,VALID,0,VALID,20.543,VALID,15,VALID,0,
2014-06-05, 02:44:05,VALID,914.835,VALID,0,VALID,96.238,VALID,0,VALID,20.543,VALID,15,VALID,0,
2014-06-05, 02:45:05,VALID,914.856,VALID,0,VALID,96.2609,VALID,0,VALID,20.5414,VALID,15,VALID,0,
2014-06-05, 02:46:05,VALID,914.858,VALID,0,VALID,96.2837,VALID,0,VALID,20.582,VALID,15,VALID,0,
2014-06-05, 02:47:05,VALID,914.85,VALID,0,VALID,96.2685,VALID,0,VALID,20.5414,VALID,15,VALID,0,
2014-06-05, 02:48:05,VALID,914.834,VALID,0,VALID,96.2837,VALID,0,VALID,20.5414,VALID,15,VALID,0,
2014-06-05, 02:49:05,VALID,914.842,VALID,0,VALID,96.2761,VALID,0,VALID,20.5414,VALID,15,VALID,0.493359,
2014-06-05, 02:50:05,VALID,914.829,VALID,0,VALID,96.2914,VALID,0,VALID,20.5414,VALID,15,VALID,0.629297,
2014-06-05, 02:51:05,VALID,914.81,VALID,0,VALID,96.2685,VALID,0,VALID,20.5219,VALID,15,VALID,0.545703,
2014-06-05, 02:52:05,VALID,914.837,VALID,0,VALID,96.2609,VALID,0,VALID,20.5024,VALID,15,VALID,0.428906,
2014-06-05, 02:53:05,VALID,914.815,VALID,0,VALID,96.2837,VALID,0,VALID,20.5024,VALID,15,VALID,0.416016,
2014-06-05, 02:54:05,VALID,914.823,VALID,0,VALID,96.2609,VALID,0,VALID,20.4829,VALID,15,VALID,0.482812,
2014-06-05, 02:55:05,VALID,914.826,VALID,0,VALID,96.2914,VALID,0,VALID,20.4829,VALID,15,VALID,0.402734,
2014-06-05, 02:56:05,VALID,914.819,VALID,0,VALID,96.299,VALID,0,VALID,20.4634,VALID,15,VALID,0.320313,
2014-06-05, 02:57:05,VALID,914.82,VALID,0,VALID,96.2837,VALID,0,VALID,20.4439,VALID,14,VALID,0.414844,
2014-06-05, 02:58:05,VALID,914.828,VALID,0,VALID,96.299,VALID,0,VALID,20.4634,VALID,14,VALID,0.000390625,
2014-06-05, 02:59:05,VALID,914.796,VALID,0,VALID,96.2914,VALID,0,VALID,20.4634,VALID,14,VALID,0.246094,
2014-06-05, 03:00:05,VALID,914.769,VALID,0,VALID,96.2837,VALID,0,VALID,20.4634,VALID,14,VALID,0.194531,
2014-06-05, 03:01:05,VALID,914.763,VALID,0,VALID,96.299,VALID,0,VALID,20.4634,VALID,14,VALID,0,
2014-06-05, 03:02:05,VALID,914.767,VALID,0,VALID,96.3142,VALID,0,VALID,20.4829,VALID,14,VALID,0,
2014-06-05, 03:03:05,VALID,914.764,VALID,0,VALID,96.3066,VALID,0,VALID,20.4634,VALID,14,VALID,0,
2014-06-05, 03:04:05,VALID,914.747,VALID,0,VALID,96.3066,VALID,0,VALID,20.504,VALID,14,VALID,0,
2014-06-05, 03:05:05,VALID,914.739,VALID,0,VALID,96.2914,VALID,0,VALID,20.4829,VALID,14,VALID,0,
2014-06-05, 03:06:05,VALID,914.764,VALID,0,VALID,96.3066,VALID,0,VALID,20.5024,VALID,14,VALID,0,
2014-06-05, 03:07:05,VALID,914.742,VALID,0,VALID,96.3295,VALID,0,VALID,20.4829,VALID,14,VALID,0,
2014-06-05, 03:08:05,VALID,914.749,VALID,0,VALID,96.3295,VALID,0,VALID,20.4829,VALID,14,VALID,0,
2014-06-05, 03:09:05,VALID,914.712,VALID,0,VALID,96.3447,VALID,0,VALID,20.5024,VALID,14,VALID,0,
2014-06-05, 03:10:05,VALID,914.73,VALID,0,VALID,96.3524,VALID,0,VALID,20.5024,VALID,14,VALID,0,
2014-06-05, 03:11:05,VALID,914.708,VALID,0,VALID,96.3752,VALID,0,VALID,20.5219,VALID,14,VALID,0,
2014-06-05, 03:12:05,VALID,914.678,VALID,0,VALID,96.3752,VALID,0,VALID,20.504,VALID,14,VALID,0,
2014-06-05, 03:13:05,VALID,914.662,VALID,0,VALID,96.3981,VALID,0,VALID,20.4829,VALID,14,VALID,0.0609375,
2014-06-05, 03:14:05,VALID,914.658,VALID,0,VALID,96.3752,VALID,0,VALID,20.4634,VALID,14,VALID,0.191406,
2014-06-05, 03:15:05,VALID,914.629,VALID,0,VALID,96.3676,VALID,0,VALID,20.4634,VALID,14,VALID,0.0746094,
2014-06-05, 03:16:05,VALID,914.622,VALID,0,VALID,96.421,VALID,0,VALID,20.4829,VALID,14,VALID,0.161719,
2014-06-05, 03:17:05,VALID,914.608,VALID,0,VALID,96.421,VALID,0,VALID,20.4634,VALID,14,VALID,0.255078,
2014-06-05, 03:18:05,VALID,914.593,VALID,0,VALID,96.4286,VALID,0,VALID,20.4634,VALID,14,VALID,0.232031,
2014-06-05, 03:19:05,VALID,914.613,VALID,0,VALID,96.4133,VALID,0,VALID,20.4439,VALID,14,VALID,0.0257812,
2014-06-05, 03:20:05,VALID,914.599,VALID,0,VALID,96.4133,VALID,0,VALID,20.4439,VALID,14,VALID,0,
2014-06-05, 03:21:05,VALID,914.58,VALID,0,VALID,96.4362,VALID,0,VALID,20.4634,VALID,14,VALID,0,
2014-06-05, 03:22:05,VALID,914.567,VALID,0,VALID,96.421,VALID,0,VALID,20.4439,VALID,14,VALID,0.0847656,
2014-06-05, 03:23:05,VALID,914.592,VALID,0,VALID,96.421,VALID,0,VALID,20.4244,VALID,14,VALID,0.223047,
2014-06-05, 03:24:05,VALID,914.6,VALID,0,VALID,96.4438,VALID,0,VALID,20.3854,VALID,14,VALID,0,
2014-06-05, 03:25:05,VALID,914.614,VALID,0,VALID,96.4362,VALID,0,VALID,20.4049,VALID,14,VALID,0,
2014-06-05, 03:26:05,VALID,914.616,VALID,0,VALID,96.4515,VALID,0,VALID,20.4049,VALID,15,VALID,0,
2014-06-05, 03:27:05,VALID,914.635,VALID,0,VALID,96.4438,VALID,0,VALID,20.4049,VALID,14,VALID,0,
2014-06-05, 03:28:05,VALID,914.636,VALID,0,VALID,96.4515,VALID,0,VALID,20.3854,VALID,14,VALID,0,
2014-06-05, 03:29:05,VALID,914.624,VALID,0,VALID,96.4515,VALID,0,VALID,20.3854,VALID,14,VALID,0,
2014-06-05, 03:30:05,VALID,914.673,VALID,0,VALID,96.4515,VALID,0,VALID,20.3659,VALID,14,VALID,0,
2014-06-05, 03:31:05,VALID,914.671,VALID,0,VALID,96.4743,VALID,0,VALID,20.3659,VALID,14,VALID,0,
2014-06-05, 03:32:05,VALID,914.677,VALID,0,VALID,96.4743,VALID,0,VALID,20.3464,VALID,14,VALID,0.351172,
2014-06-05, 03:33:05,VALID,914.663,VALID,0,VALID,96.4896,VALID,0,VALID,20.3869,VALID,14,VALID,0.339063,
2014-06-05, 03:34:05,VALID,914.676,VALID,0,VALID,96.4972,VALID,0,VALID,20.3659,VALID,14,VALID,0.243359,
2014-06-05, 03:35:05,VALID,914.688,VALID,0,VALID,96.5201,VALID,0,VALID,20.3854,VALID,14,VALID,0.388281,
2014-06-05, 03:36:05,VALID,914.709,VALID,0,VALID,96.5124,VALID,0,VALID,20.3659,VALID,14,VALID,0.602344,
2014-06-05, 03:37:05,VALID,914.708,VALID,0,VALID,96.5048,VALID,0,VALID,20.3659,VALID,14,VALID,0.511719,
2014-06-05, 03:38:05,VALID,914.718,VALID,0,VALID,96.5124,VALID,0,VALID,20.3464,VALID,14,VALID,0.660547,
2014-06-05, 03:39:05,VALID,914.738,VALID,0,VALID,96.5201,VALID,0,VALID,20.3464,VALID,14,VALID,0.559375,
2014-06-05, 03:40:05,VALID,914.709,VALID,0,VALID,96.5201,VALID,0,VALID,20.3464,VALID,15,VALID,0.628906,
2014-06-05, 03:41:05,VALID,914.734,VALID,0,VALID,96.5277,VALID,0,VALID,20.3659,VALID,15,VALID,0.694922,
2014-06-05, 03:42:05,VALID,914.766,VALID,0,VALID,96.5277,VALID,0.107441,VALID,20.3464,VALID,15,VALID,0.768359,
2014-06-05, 03:43:05,VALID,914.762,VALID,0,VALID,96.5429,VALID,0,VALID,20.3464,VALID,15,VALID,0.536328,
2014-06-05, 03:44:05,VALID,914.765,VALID,0,VALID,96.5429,VALID,0,VALID,20.3464,VALID,15,VALID,0.551953,
2014-06-05, 03:45:05,VALID,914.794,VALID,0,VALID,96.5429,VALID,0,VALID,20.3464,VALID,15,VALID,0.414844,
2014-06-05, 03:46:05,VALID,914.748,VALID,0,VALID,96.5429,VALID,0,VALID,20.3464,VALID,15,VALID,0.659375,
2014-06-05, 03:47:05,VALID,914.782,VALID,0,VALID,96.5506,VALID,0,VALID,20.3464,VALID,15,VALID,0.521094,
2014-06-05, 03:48:05,VALID,914.794,VALID,0,VALID,96.5429,VALID,0,VALID,20.3464,VALID,15,VALID,0.497266,
2014-06-05, 03:49:05,VALID,914.797,VALID,0,VALID,96.5429,VALID,0,VALID,20.3464,VALID,15,VALID,0.750391,